sat.trackr.live / text

‹ back to catalog

GONETS-M 18

NORAD 46487 · 2020-068B

PAYLOAD ACTIVE UNKNOWN

§ Identity

Operator
Country
CIS
Launch date
2020-09-28
Launch site
PLMSC
Launch vehicle
Mass (kg)
RCS (m²)

External: N2YO · Heavens-Above · Gunter

§ Orbital elements

Epoch: 2026-09-10T04:17:22.081920Z

Period
115.86 min
Inclination
82.4924°
Eccentricity
0.0019466
Mean motion
12.42876479 rev/d
Perigee alt
1,479.1 km
Apogee alt
1,509.8 km
Semi-major
7,872.6 km
B*
1.1788e-4
RAAN
293.7220°
Arg perigee
202.9820°
Mean anomaly
157.0391°
Rev number
26,970

§ Raw data

GONETS-M 181 46487U 20068B   26253.17872780  .00000026  00000+0  11788-3 0  99982 46487  82.4924 293.7220 0019466 202.9820 157.0391 12.42876479269704

JSON: /api/v1/satellites/46487 · /tle

For live sub-satellite position, see the globe view (requires WebGL).

§ Visibility from observer

Set your observer location to see the next 7 days of passes ≥ 10°. The values pass through the URL so the page stays shareable.

No JS? Fill the form by hand. The geolocation button needs JavaScript.

§ Radio — SatNOGS DB

ModeDescriptionDownlinkUplink
FM UHF Unknown 387.175 MHz
FM UHF Unknown 387.774 MHz

2 transmitters · refreshed weekly from db.satnogs.org